Harrisburg, IL

3:45 PM CST on December 15, 2019 (GMT -0600)
Harrisburg-Raleigh

Weather History for KHSB - October, 2019

Change the Weather History Date:

Tuesday, October 15, 2019

  Actual Average (KMWA) Record (KMWA)
Temperature  
Mean Temperature 57 °F -  
Max Temperature 72 °F 69 °F 85 °F (1968)
Min Temperature 42 °F 43 °F 27 °F (1979)
Degree Days  
Heating Degree Days 8    
Growing Degree Days 7 (Base 50)    
Moisture  
Dew Point 51 °F    
Average Humidity 79    
Maximum Humidity 90    
Minimum Humidity 49    
Precipitation  
Precipitation 0.07 in - - ()
Sea Level Pressure  
Sea Level Pressure 29.94 in    
Wind  
Wind Speed 2 mph ()    
Max Wind Speed 13 mph    
Max Gust Speed 18 mph    
Visibility 8.2 miles    
Events Fog , Rain , Thunderstorm    
Averages and records for this station are not official NWS values.
T = Trace of Precipitation, MM = Missing Value Source: Averaged Metar Reports

Daily Weather History Graph

Daily Weather History Graph

Search for Another Location

Airport or City:

Astronomy

Oct. 15, 2019 Rise Set
Actual Time 7:02 AM CDT 6:16 PM CDT
Civil Twilight 6:35 AM CDT 6:43 PM CDT
Nautical Twilight 6:05 AM CDT 7:13 PM CDT
Astronomical Twilight 5:35 AM CDT 7:44 PM CDT
Moon 7:38 PM CDT 8:31 AM CDT
Length of Visible Light 12h 07m
Length of Day
11h 14m
Full, 97% of the Moon is Illuminated
Oct 15
Full
Oct 21
Last Quarter
Oct 27
New
Nov 4
First Quarter
Nov 12
Full

Hourly Weather History & Observations

Time (CDT) Temp. Dew Point Humidity Pressure Visibility Wind Dir Wind Speed Gust Speed Precip Events Conditions
12:15 AM 45.9 °F 42.4 °F 88% 30.06 in 10.0 mi Calm Calm - N/A   Clear
12:35 AM 45.0 °F 41.9 °F 89% 30.06 in 10.0 mi Calm Calm - N/A   Clear
12:55 AM 46.4 °F 43.0 °F 88% 30.05 in 10.0 mi Calm Calm - N/A   Clear
1:15 AM 45.1 °F 42.1 °F 89% 30.05 in 10.0 mi Calm Calm - N/A   Clear
1:35 AM 43.7 °F 40.6 °F 89% 30.05 in 10.0 mi Calm Calm - N/A   Clear
1:55 AM 44.6 °F 41.4 °F 88% 30.05 in 10.0 mi Calm Calm - N/A   Clear
2:15 AM 44.2 °F 41.2 °F 89% 30.05 in 10.0 mi Calm Calm - N/A   Clear
2:35 AM 43.5 °F 40.5 °F 89% 30.04 in 10.0 mi Calm Calm - N/A   Clear
2:55 AM 43.3 °F 40.5 °F 90% 30.04 in 10.0 mi Calm Calm - N/A   Clear
3:15 AM 43.7 °F 40.6 °F 89% 30.04 in 10.0 mi Calm Calm - N/A   Clear
3:35 AM 42.4 °F 39.4 °F 89% 30.03 in 10.0 mi Calm Calm - N/A   Clear
3:55 AM 43.2 °F 40.1 °F 89% 30.03 in 10.0 mi Calm Calm - N/A   Clear
4:15 AM 43.7 °F 40.6 °F 89% 30.02 in 10.0 mi Calm Calm - N/A   Clear
4:35 AM 43.2 °F 40.1 °F 89% 30.02 in 10.0 mi Calm Calm - N/A   Clear
4:55 AM 44.1 °F 41.0 °F 89% 30.02 in 10.0 mi Calm Calm - N/A   Clear
5:15 AM 44.1 °F 41.0 °F 89% 30.02 in 10.0 mi Calm Calm - N/A   Clear
5:35 AM 43.2 °F 40.3 °F 90% 30.02 in 10.0 mi Calm Calm - N/A   Clear
5:55 AM 43.7 °F 40.6 °F 89% 30.03 in 10.0 mi Calm Calm - N/A   Clear
6:15 AM 44.6 °F 41.5 °F 89% 30.02 in 10.0 mi Calm Calm - N/A   Clear
6:35 AM 43.5 °F 40.6 °F 90% 30.02 in 10.0 mi Calm Calm - N/A   Clear
6:55 AM 43.5 °F 40.5 °F 89% 30.02 in 10.0 mi Calm Calm - N/A   Clear
7:15 AM 43.2 °F 40.1 °F 89% 30.01 in 10.0 mi Calm Calm - N/A   Clear
7:35 AM 44.2 °F 41.2 °F 89% 30.01 in 10.0 mi Calm Calm - N/A   Clear
7:55 AM 46.9 °F 44.1 °F 90% 30.00 in 10.0 mi Calm Calm - N/A   Clear
8:15 AM 51.3 °F 48.2 °F 89% 29.99 in 10.0 mi SE 3.5 mph - N/A   Clear
8:35 AM 54.0 °F 49.1 °F 84% 30.00 in 10.0 mi Calm Calm - N/A   Clear
8:55 AM 56.3 °F 48.7 °F 76% 30.00 in 10.0 mi Calm Calm - N/A   Clear
9:15 AM 58.6 °F 50.7 °F 75% 30.00 in 10.0 mi Calm Calm - N/A   Clear
9:35 AM 60.8 °F 50.7 °F 69% 29.99 in 10.0 mi SSW 3.5 mph - N/A   Clear
9:55 AM 63.7 °F 51.4 °F 64% 29.99 in 10.0 mi SW 5.8 mph - N/A   Scattered Clouds
10:15 AM 65.5 °F 51.1 °F 60% 29.98 in 10.0 mi SSW 9.2 mph - N/A   Overcast
10:35 AM 67.3 °F 50.4 °F 55% 29.97 in 10.0 mi SSW 5.8 mph - N/A   Overcast
10:55 AM 69.1 °F 50.5 °F 52% 29.95 in 10.0 mi South 8.1 mph - N/A   Scattered Clouds
11:15 AM 69.1 °F 50.7 °F 52% 29.95 in 10.0 mi SSW 3.5 mph - N/A   Mostly Cloudy
11:35 AM 72.1 °F 52.2 °F 49% 29.94 in 10.0 mi SW 8.1 mph - N/A   Overcast
11:55 AM 72.1 °F 52.9 °F 51% 29.94 in 10.0 mi SW 10.4 mph - N/A   Overcast
12:15 PM 70.3 °F 55.0 °F 58% 29.94 in 10.0 mi SW 12.7 mph 18.4 mph N/A   Overcast
12:35 PM 70.0 °F 54.5 °F 58% 29.94 in 10.0 mi SW 6.9 mph - N/A   Overcast
12:55 PM 71.4 °F 54.1 °F 54% 29.93 in 10.0 mi WSW 8.1 mph - N/A   Overcast
1:15 PM 71.6 °F 54.7 °F 55% 29.92 in 10.0 mi SW 9.2 mph - N/A   Overcast
1:35 PM 72.0 °F 54.9 °F 55% 29.90 in 10.0 mi SW 9.2 mph - N/A   Overcast
1:55 PM 72.3 °F 55.0 °F 54% 29.89 in 10.0 mi SSW 9.2 mph - N/A   Overcast
2:15 PM 71.6 °F 55.6 °F 57% 29.88 in 10.0 mi SSW 12.7 mph - N/A   Overcast
2:35 PM 71.2 °F 55.6 °F 58% 29.88 in 10.0 mi SW 10.4 mph - N/A   Overcast
2:55 PM 70.3 °F 57.4 °F 63% 29.87 in 10.0 mi SW 12.7 mph 16.1 mph N/A   Overcast
3:15 PM 70.2 °F 57.4 °F 64% 29.87 in 7.0 mi SW 8.1 mph 16.1 mph N/A Rain Light Rain
3:35 PM 69.8 °F 57.9 °F 66% 29.86 in 10.0 mi SW 9.2 mph - N/A   Overcast
3:55 PM 68.9 °F 58.1 °F 68% 29.86 in 10.0 mi WSW 5.8 mph - N/A   Overcast
4:15 PM 68.9 °F 58.3 °F 69% 29.86 in 10.0 mi WSW 4.6 mph - N/A   Overcast
4:35 PM 68.5 °F 59.2 °F 72% 29.86 in 10.0 mi WSW 5.8 mph - N/A   Drizzle
4:55 PM 67.3 °F 60.8 °F 80% 29.86 in 7.0 mi West 5.8 mph - N/A Rain Light Rain
5:15 PM 66.2 °F 61.9 °F 86% 29.87 in 7.0 mi West 5.8 mph - N/A Rain Light Rain
5:35 PM 64.8 °F 61.7 °F 90% 29.86 in 7.0 mi West 3.5 mph - 0.02 in Rain Rain
5:55 PM 64.4 °F 61.2 °F 89% 29.87 in 4.0 mi Calm Calm - 0.05 in Rain Rain
6:15 PM 64.0 °F 60.8 °F 89% 29.86 in 2.0 mi West 3.5 mph - N/A Rain Light Rain
6:35 PM 63.7 °F 60.4 °F 89% 29.85 in 2.5 mi Calm Calm - 0.01 in Rain Heavy Rain
6:55 PM 63.3 °F 60.1 °F 89% 29.85 in 4.0 mi Calm Calm - 0.02 in   Overcast
7:15 PM 63.5 °F 60.1 °F 89% 29.85 in 4.0 mi Calm Calm - N/A   Overcast
7:35 PM 63.5 °F 60.1 °F 89% 29.85 in 5.0 mi Calm Calm - N/A Thunderstorm Overcast
7:55 PM 63.0 °F 59.7 °F 89% 29.84 in 4.0 mi South 3.5 mph - N/A   Overcast
8:15 PM 62.8 °F 59.5 °F 89% 29.84 in 2.5 mi South 4.6 mph - N/A   Overcast
8:35 PM 62.8 °F 59.5 °F 89% 29.84 in 3.0 mi Calm Calm - N/A   Overcast
8:55 PM 62.6 °F 59.2 °F 89% 29.84 in 2.5 mi Calm Calm - N/A   Overcast
9:15 PM 62.1 °F 59.0 °F 90% 29.85 in 1.0 mi Calm Calm - N/A Thunderstorm Overcast
9:35 PM 62.4 °F 59.0 °F 89% 29.86 in 0.5 mi Calm Calm - N/A Fog Fog
9:55 PM 62.1 °F 59.0 °F 90% 29.84 in 1.0 mi Calm Calm - N/A   Overcast
10:15 PM 62.1 °F 59.0 °F 90% 29.85 in 2.0 mi Calm Calm - N/A   Overcast
10:35 PM 62.1 °F 59.0 °F 90% 29.85 in 1.8 mi NW 3.5 mph - N/A   Overcast
10:55 PM 63.0 °F 59.9 °F 90% 29.85 in 5.0 mi NW 5.8 mph - N/A Rain Light Rain
11:15 PM 63.0 °F 59.9 °F 90% 29.86 in 7.0 mi WNW 8.1 mph - N/A   Mostly Cloudy
11:35 PM 63.1 °F 58.5 °F 85% 29.87 in 10.0 mi NNW 8.1 mph - N/A   Mostly Cloudy
11:55 PM 62.4 °F 53.8 °F 73% 29.88 in 10.0 mi NNW 9.2 mph - N/A   Overcast